Lid_Strength_Index
7 8 10 10 7 6 5 4 5 5 4 5 6 3 2 2 0 -0 -0 -1 -1 -1 -1 -1 -1 -1 -1 -1 -1 -1 -1 -1
8 10 7 6 6 5 5 5 4 4 7 4 2 2 1 0 0 0 -0 -1 -1 -1 -1 -1 -2 -1 -1 -1 -1 -1 -1 -1
8 8 6 6 5 5 5 5 5 4 6 6 2 1 1 0 0 0 0 -0 -1 -1 -1 -1 -2 -1 -1 -1 -1 -1 -1 -2
9 8 6 5 4 4 5 5 5 5 5 5 2 2 1 0 0 -0 0 -0 -1 -1 -1 -1 -1 -1 -1 -1 -1 -1 -1 -2
8 7 7 5 4 5 5 5 5 4 7 5 3 1 1 0 0 0 -0 -0 -0 -1 -1 -1 -1 -1 -1 -1 -1 -1 -1 -1
7 8 7 5 4 4 4 5 3 3 7 7 3 1 1 0 0 0 0 -0 -0 -1 -1 -1 -1 -1 -1 -1 -1 -1 -1 -2
8 7 6 4 5 3 3 4 3 3 4 3 2 1 1 1 1 1 1 0 -0 -0 -0 -1 -1 -1 -1 -1 -1 -1 -1 -2
6 5 6 5 5 4 4 5 4 4 3 2 2 2 2 2 2 2 1 1 0 -0 -0 -0 -1 -1 -1 -1 -1 -1 -1 -1
6 5 5 6 6 4 4 6 4 4 4 3 3 2 2 2 2 2 1 1 0 -0 -0 -0 -0 -1 -1 -1 -1 -1 -1 -1
6 5 6 6 5 6 6 5 3 3 2 3 3 3 3 2 2 2 1 1 0 -0 -0 -0 -0 -0 -1 -0 -1 -0 -1 -1
6 6 6 6 7 6 6 3 2 3 3 2 3 3 2 2 2 1 2 1 0 -0 -0 -0 -0 -0 -0 -0 -0 -1 -1 -1
6 6 6 7 6 6 4 3 3 3 3 2 2 3 2 2 2 2 1 1 0 0 -0 -0 -0 -0 -0 -0 -1 -1 -1 -1
6 6 6 6 7 7 4 3 4 4 3 3 3 2 3 2 2 1 1 1 1 0 -0 -0 -1 -0 -0 -1 -1 -0 -1 -1
6 6 6 6 9 5 4 4 5 4 4 4 4 3 2 2 2 2 1 1 -0 0 0 0 -0 -0 -0 -1 -1 -0 -1 -1
7 5 5 7 7 6 4 4 5 5 5 5 4 3 3 2 2 1 0 1 0 0 0 0 -0 -0 -0 -0 -0 -1 -1 -1
8 7 6 7 7 6 5 5 5 5 5 5 5 4 3 2 1 1 1 0 0 0 -0 0 0 -0 -0 0 -0 -1 -0 -0
7 6 7 7 7 7 5 5 6 6 5 5 5 3 2 2 2 1 1 1 1 1 0 0 1 1 1 1 1 0 -0 -1
7 6 6 7 7 7 6 6 5 6 6 5 4 4 3 3 2 2 2 2 2 1 1 0 0 0 1 1 1 0 -0 -0
9 7 6 7 8 8 6 6 5 5 4 4 4 4 4 3 3 2 2 2 2 1 0 0 0 0 1 0 0 1 1 1
8 9 11 7 12 10 8 8 6 6 5 5 4 3 3 3 3 3 3 2 2 2 3 3 3 1 2 2 3 1 1 0